Regional Weather Roundup
Issued by NWS Green Bay, WI

Home | Current Version | Previous Version | Text Only | Print | Product List | Glossary On
Versions: 1 2 3 4 5 6 7 8 9 10 11 12 13 14 15 16 17 18 19 20 21 22 23 24 25 26 27 28 29 30 31 32 33 34 35 36 37 38 39 40 41 42 43 44 45 46 47 48 49 50
000
ASUS43 KGRB 280610
RWRGRB

NORTH-CENTRAL AND NORTHEAST WISCONSIN REGIONAL WEATHER ROUNDUP
NATIONAL WEATHER SERVICE GREEN BAY WI
100 AM CDT MON JUL 28 2014

WIZ005-009-010>012-018-019-280700-
NORTH CENTRAL WISCONSIN

CITY           SKY/WX    TMP DP  RH WIND       PRES   REMARKS
IRONWOOD       NOT AVBL
MANITOWISH WTR CLEAR     50  49  97 NW5       30.08S
ARBOR VITAE    CLEAR     51  49  92 N3        30.08R
EAGLE RIVER    CLEAR     50  49  94 N3        30.06R
LAND O LAKES   CLEAR     53  48  86 N6        30.07S
RHINELANDER    CLEAR     51  49  92 NW3       30.07R
PHILLIPS       CLEAR     49  48  97 CALM      30.09S
ANTIGO         CLEAR     50  49  93 N6        30.05R
TOMAHAWK       CLEAR     49  48  94 NW3       30.08R
MERRILL        CLEAR     52  51  97 NW3       30.06R
$$

WIZ013-073-280700-
NORTHEAST WISCONSIN

CITY           SKY/WX    TMP DP  RH WIND       PRES   REMARKS
IRON MOUNTAIN  CLEAR     52  45  77 N7        30.02R
MARINETTE      CLEAR     55  45  67 N13       29.98R
OCONTO         CLEAR     56  48  76 N7        29.99R
$$

WIZ017-030-035>037-045-280700-
CENTRAL WISCONSIN

CITY           SKY/WX    TMP DP  RH WIND       PRES   REMARKS
MEDFORD        CLEAR     51  50  95 NW6       30.08S
WAUSAU         CLEAR     55  52  89 NW7       30.05R
MOSINEE        CLEAR     52  52 100 NW7       30.07R
MARSHFIELD     CLEAR     54  51  90 NW9       30.07R
WISC RAPIDS    CLEAR     56  52  86 MISG      30.07R
STEVENS POINT  CLEAR     53  49  89 NW3       30.06R
WAUPACA        CLEAR     58  52  83 NW6       30.03R
SHAWANO        CLEAR     56  51  81 NW7       30.02R
CLINTONVILLE   CLEAR     55  50  82 NW5       30.02R
$$

WIZ038-039-048-051-280700-
FOX VALLEY

CITY           SKY/WX    TMP DP  RH WIND       PRES   REMARKS
NWS GREEN BAY  CLEAR     57  50  77 N9        29.99R
APPLETON       CLEAR     55  50  82 N13       30.01R
OSHKOSH        CLEAR     59  52  77 N12       30.00R
FOND DU LAC    CLEAR     59  51  75 N12       29.99R
$$

WIZ022-050-052-280700-
EAST CENTRAL WISCONSIN

CITY           SKY/WX    TMP DP  RH WIND       PRES   REMARKS
STURGEON BAY   CLEAR     57  46  67 N18G26    29.97S
MANITOWOC      CLEAR     59  48  67 N13       29.95S
SHEBOYGAN      CLEAR     60  50  69 N12       29.96R
$$

LMZ563-521-522-541>543-280700-
LAKESHORE

STATION/POSITION TIME  TEMP    WIND        PRES    VSBY  WAVE
                       AIR SEA DIR/SP/G                  HT/PER
                 (UTC) (F)     (DEG/KT/KT) (MB)    (MI)  (FT/S)
SHEBOYGAN LKSHOR 0600   58     350/ 19/ 21 1014.2R
KEWAUNEE LKSHORE 0600   59     350/  9/ 15 1015.0R
NORTHPORT PIER   0600   57     350/ 20/ 23 1014.6S
N MID LAKE BUOY  0600   56 55  350/ 19/ 23 1012.8R         4/ 5
S GREEN BAY BUOY 0500   61 67  350/ 21     1015.8
CHAMBERS ISLAND  0600   58     340/ 18/ 25 1015.2R
MENOMINEE LKSHOR 0600   57     350/ 19/ 25 1015.8R
$$


USA.gov is the U.S. government's official web portal to all federal, state and local government web resources and services.